[[{"header":{"parameterUnit":"m.s-1","parameterCategory":1,"la1":30.2992,"la2":30.254,"lo1":-89.0895,"lo2":-89.0443,"dy":0.0025,"dx":0.0025,"nx":19,"ny":19,"refTime":"2026-04-28T21:00:00:Z","depth":0,"parameterNumber":2,"parameterNumberName":"U-component_of_WINDS"},"data":[0,0,0,-4.6831,-4.6833,-4.689,-4.689,-4.6991,-4.6992,0,0,0,0,0,0,0,0,0,0,0,-4.6832,-4.6834,-4.6831,-4.6833,-4.689,-4.689,-4.6991,-4.6992,0,0,0,0,0,0,0,0,0,0,0,-4.6832,-4.6833,-4.6835,-4.6834,-4.689,-4.689,-4.6991,-4.6938,0,0,0,0,0,0,0,0,0,0,-4.6878,-4.6896,-4.6833,-4.6835,-4.6834,-4.689,-4.689,-4.6935,-4.6941,-4.6978,0,-4.7016,0,-4.7006,-4.7001,-4.7001,0,0,0,-4.682,-4.6891,-4.689,-4.6835,-4.6835,-4.689,-4.686,-4.6938,-4.6945,-4.6987,-4.7017,-4.702,-4.7008,-4.7002,-4.7002,-4.7261,-4.7262,0,0,-4.6817,-4.6852,-4.6885,-4.6896,-4.6889,-4.6859,-4.6862,-4.6942,-4.6977,-4.7017,-4.7022,-4.7009,-4.7003,-4.7004,-4.7259,-4.7261,0,0,0,-4.6817,-4.6851,-4.6847,-4.6892,-4.69,-4.6861,-4.6865,-4.6973,-4.6969,-4.7023,-4.701,-4.7003,-4.7005,-4.7257,-4.726,-4.7383,0,0,0,-4.6814,-4.685,-4.6846,-4.6869,-4.6899,-4.6938,-4.6896,-4.6964,-4.6972,-4.701,-4.7003,-4.7006,-4.7255,-4.7258,-4.7376,-4.7436,0,0,0,-4.6823,-4.6851,-4.6865,-4.687,-4.6896,-4.6935,-4.6935,-4.6965,-4.6965,-4.7002,-4.7007,-4.7253,-4.7258,-4.7369,-4.7424,-4.7513,0,0,0,-4.6842,-4.6975,-4.6868,-4.7012,-4.6896,-4.7012,-4.6935,-4.7019,-4.7066,-4.7004,-4.7255,-4.7259,-4.7366,-4.7417,-4.7506,-4.7594,-4.7634,0,0,-4.703,-4.6999,-4.7081,-4.6987,-4.7131,-4.7001,-4.7163,-4.7172,-4.7143,-4.7223,-4.7229,-4.7378,-4.7423,-4.7512,-4.7849,-4.7881,0,0,0,-4.7152,-4.7212,-4.7242,-4.7288,-4.7298,-4.7311,-4.7292,-4.7295,-4.7361,-4.7192,-4.7434,-4.746,-4.751,-4.755,-4.7578,-4.7618,-4.728,-4.7279,-4.7279,-4.7468,-4.7424,-4.7557,-4.752,-4.7566,-4.7544,-4.7577,-4.7577,-4.752,-4.7578,-4.7601,-4.7811,-4.786,-4.788,-4.7923,-4.7645,-4.7646,-4.7646,-4.7646,-4.7738,-4.7815,-4.7736,-4.7836,-4.7789,-4.7873,-4.7858,-4.7815,-4.7886,-4.779,-4.7832,-4.7731,-4.7917,-4.7951,-4.7655,-4.7654,-4.7653,-4.7652,-4.7651,-4.7939,-4.7968,-4.797,-4.8031,-4.8084,-4.8042,-4.8114,-4.8069,-4.8027,-4.8069,-4.8087,-4.8085,-4.8076,-4.8081,-4.8082,-4.8083,-4.8083,-4.8084,-4.8084,-4.8146,-4.8145,-4.821,-4.8233,-4.8256,-4.8281,-4.8261,-4.8283,-4.8295,-4.8257,-4.8256,-4.8193,-4.7943,-4.7881,-4.8095,-4.8093,-4.8092,-4.8091,-4.809,-4.8434,-4.8362,-4.8464,-4.8487,-4.8509,-4.8564,-4.8506,-4.8554,-4.8566,-4.8602,-4.853,-4.8354,-4.8319,-4.8297,-4.8244,-4.854,-4.854,-4.854,-4.854,-4.8603,-4.8581,-4.8674,-4.8715,-4.8749,-4.8707,-4.8823,-4.881,-4.8784,-4.8789,-4.874,-4.8667,-4.8647,-4.8624,-4.8595,-4.8545,-4.8911,-4.8911,-4.8911,-4.8777,-4.8756,-4.8863,-4.8837,-4.8852,-4.8865,-4.8973,-4.9022,-4.8978,-4.8925,-4.8791,-4.8775,-4.8657,-4.8621,-4.8564,-4.852,-4.8428,0,0]},{"header":{"parameterUnit":"m.s-1","parameterCategory":1,"la1":30.2992,"la2":30.254,"lo1":-89.0895,"lo2":-89.0443,"dy":0.0025,"dx":0.0025,"nx":19,"ny":19,"refTime":"2026-04-28T21:00:00:Z","depth":0,"parameterNumber":3,"parameterNumberName":"V-component_of_WINDS"},"data":[0,0,0,-3.3672,-3.3672,-3.3668,-3.3668,-3.368,-3.3681,0,0,0,0,0,0,0,0,0,0,0,-3.3685,-3.3685,-3.3672,-3.3672,-3.3668,-3.3668,-3.368,-3.3681,0,0,0,0,0,0,0,0,0,0,0,-3.3684,-3.3685,-3.3686,-3.3672,-3.3668,-3.3668,-3.368,-3.3677,0,0,0,0,0,0,0,0,0,0,-3.3678,-3.3701,-3.3685,-3.3686,-3.3672,-3.3668,-3.3668,-3.3677,-3.3677,-3.369,0,-3.3705,0,-3.3693,-3.3683,-3.3683,0,0,0,-3.3664,-3.3701,-3.3689,-3.3686,-3.3672,-3.3668,-3.3667,-3.3677,-3.3677,-3.3691,-3.3705,-3.3705,-3.3693,-3.3683,-3.3683,-3.3787,-3.3788,0,0,-3.3664,-3.369,-3.3689,-3.369,-3.3692,-3.3668,-3.3667,-3.3677,-3.3694,-3.3705,-3.3705,-3.3694,-3.3683,-3.3683,-3.3786,-3.3787,0,0,0,-3.367,-3.3691,-3.3678,-3.369,-3.3688,-3.3668,-3.3667,-3.3693,-3.3687,-3.3705,-3.3694,-3.3683,-3.3684,-3.3785,-3.3786,-3.3857,0,0,0,-3.367,-3.3694,-3.3679,-3.3695,-3.3688,-3.3691,-3.3684,-3.3686,-3.3687,-3.3694,-3.3683,-3.3684,-3.3784,-3.3786,-3.3852,-3.3886,0,0,0,-3.3681,-3.3695,-3.3699,-3.3696,-3.3695,-3.369,-3.3684,-3.3686,-3.368,-3.3683,-3.3684,-3.3783,-3.3785,-3.3849,-3.388,-3.3922,0,0,0,-3.37,-3.3761,-3.37,-3.3763,-3.3696,-3.3733,-3.3683,-3.371,-3.372,-3.3683,-3.3784,-3.3786,-3.3848,-3.3876,-3.3918,-3.3964,-3.3984,0,0,-3.3791,-3.3773,-3.3807,-3.3753,-3.3808,-3.3731,-3.3796,-3.3781,-3.3757,-3.3778,-3.378,-3.3854,-3.3879,-3.3921,-3.4088,-3.4105,0,0,0,-3.3845,-3.3871,-3.3879,-3.3891,-3.388,-3.3874,-3.3846,-3.384,-3.3857,-3.3773,-3.3878,-3.3893,-3.3916,-3.3937,-3.3951,-3.397,-3.3796,-3.3796,-3.3796,-3.4013,-3.3979,-3.4034,-3.4,-3.4011,-3.398,-3.3987,-3.3973,-3.3935,-3.3961,-3.3968,-3.4074,-3.4098,-3.4109,-3.4129,-3.3987,-3.3987,-3.3988,-3.3988,-3.4145,-3.4176,-3.4123,-3.4159,-3.4122,-3.4151,-3.4123,-3.4095,-3.4117,-3.4065,-3.4084,-3.4033,-3.4128,-3.4144,-3.3993,-3.3992,-3.3991,-3.3991,-3.399,-3.4253,-3.4262,-3.4253,-3.4265,-3.4278,-3.424,-3.4263,-3.4228,-3.4195,-3.4214,-3.4218,-3.4217,-3.4213,-3.4218,-3.4218,-3.4218,-3.4219,-3.4219,-3.4219,-3.437,-3.4357,-3.4381,-3.4374,-3.4376,-3.4375,-3.4344,-3.4345,-3.4337,-3.431,-3.431,-3.4271,-3.4143,-3.4113,-3.4225,-3.4224,-3.4223,-3.4223,-3.4222,-3.452,-3.448,-3.4517,-3.452,-3.4508,-3.4524,-3.4477,-3.4483,-3.4478,-3.4491,-3.4446,-3.4357,-3.4336,-3.4325,-3.43,-3.4453,-3.4453,-3.4453,-3.4453,-3.4613,-3.4598,-3.4628,-3.4634,-3.4635,-3.4597,-3.4641,-3.4617,-3.4585,-3.4581,-3.4553,-3.4516,-3.4505,-3.449,-3.4475,-3.4451,-3.4639,-3.464,-3.464,-3.4704,-3.4687,-3.4732,-3.47,-3.4688,-3.4679,-3.4718,-3.4727,-3.4683,-3.4647,-3.4576,-3.4568,-3.4508,-3.449,-3.4455,-3.4432,-3.4388,0,0]}]]